Powrót do katalogu

COSMOS 304

AktywnyMilitariaLEO
NORAD 4138·PAYLOAD·🇷🇺 Russia

Wystrzelony Oct 21, 1969 z Plesetsk Cosmodrome

Loading…

Następne Przeloty (najbliższe 24 godziny)

TLE

ŚwieżeSource: Space-Track

Epoka: Sep 14, 2026, 10:05 UTC

1 04138U 69091A   26257.42058188 -.00000006  00000-0  57930-5 0  9995
2 04138  74.0376  64.8660 0011982  43.3549 316.8550 14.46482666   582

Śledź COSMOS 304 w czasie rzeczywistym z AllMySat

Download on the App Store